Torna al catalogo

STARLINK-11457

AttivoComunicazioniVLEO
NORAD 62919·PAYLOAD·🇺🇸 United States

Lanciato Feb 8, 2025 da Cape Canaveral Space Force Station

Loading…

Prossimi Passaggi (prossime 24 ore)

TLE

AggiornatoSource: CelesTrak SupGP

Epoca: Sep 15, 2026, 03:18 UTC

1 62919C 25027N   26258.13798611  .00042368  00000+0  32889-3 0  2585
2 62919  43.0004 285.3876 0001560 250.5101  23.1160 15.70830797    16

Traccia STARLINK-11457 in tempo reale con AllMySat

Download on the App Store